Terminal Aerodrome Forecast
Issued by NWS Houston/Galveston, TX

Home | Current Version | Previous Version | Text Only | Print | Product List | Glossary On
Versions: 1 2 3 4 5 6 7 8 9 10 11 12 13 14 15 16 17 18 19 20 21 22 23 24 25 26 27 28 29 30 31 32 33
000
FTUS44 KHGX 300521
TAFCLL
TAF
KCLL 300521Z 3006/3106 18009KT P6SM BKN022 WS012/21030KT
     FM301000 18006KT P6SM OVC015
     FM301500 20008KT P6SM BKN025
     FM301800 18009KT P6SM SCT040
     FM310500 18006KT P6SM BKN022=

USA.gov is the U.S. government's official web portal to all federal, state and local government web resources and services.